Flag for United Arab Emirates Weather past 2 weeks in Umm al-Quwain, Umm al-Quwain, United Arab Emirates

Now
90 °F

Clear.


Feels Like: 103 °F
Forecast: 89 / 96 °F
Wind: 5 mph from Northwest

Location: Sharjah International Airport

Current Time: Sep 30, 2014 at 10:48:16 PM

Latest Report: Sep 30, 2014 at 10:00 PM


Visibility: 10 mi

Pressure: 29.83 "Hg

Humidity: 67%

Dew point: 77 °F

Location of Umm al-QuwainLocation

Historic Weather in Umm al-Quwain — Graph

°F

Umm al-Quwain temperature yesterday

Maximum temperature yesterday: 99 °F (at 1:00 PM)
Minimum temperature yesterday: 79 °F (at 6:00 AM)
Average temperature yesterday: 89 °F

Past Weeks' High & Low Weather Summary

 TemperatureHumidityPressure
High106 °F (Sep 22, 1:00 PM)89% (Sep 18, 5:00 AM)29.92 "Hg (Sep 18, 5:00 AM)
Low79 °F (Sep 29, 6:00 AM)26% (Sep 21, 12:00 PM)29.56 "Hg (Sep 16, 3:00 AM)
Average92 °F57%29.73 "Hg
* Reported Sep 15 9:00 PM — Sep 30 9:00 PM, Umm al-Quwain, Weather by CustomWeather, © 2014

Note: Actual official high and low records may vary slightly from our data, if they occured in-between our weather recording intervals... More about our weather records

Advertising

Umm al-Quwain weather history for previous 24 hours

 ConditionsComfort  
Time TempWeatherWind HumidityBarometerVisibility
9:00 PM
Sep 30
90 °FClear.6 mph67%29.83 "Hg10 mi
8:00 PM91 °FClear.7 mph59%29.83 "Hg10 mi
7:00 PM91 °FClear.10 mph59%29.80 "Hg10 mi
6:00 PM93 °FSunny.13 mph59%29.80 "Hg10 mi
5:00 PM95 °FSunny.13 mph50%29.80 "Hg10 mi
4:00 PM97 °FSunny.14 mph39%29.77 "Hg10 mi
3:00 PM99 °FPassing clouds.14 mph31%29.80 "HgN/A
2:00 PM100 °FPassing clouds.13 mph29%29.80 "HgN/A
1:00 PM100 °FSunny.6 mph33%29.83 "Hg10 mi
12:00 PM99 °FSunny.3 mph37%29.86 "Hg10 mi
11:00 AM95 °FSunny.3 mph41%29.89 "Hg10 mi
10:00 AM93 °FPassing clouds.3 mph44%29.89 "HgN/A
9:00 AM90 °FSunny.2 mph67%29.89 "Hg10 mi
8:00 AM84 °FSunny.8 mph66%29.89 "Hg10 mi
7:00 AM82 °FPassing clouds.3 mph70%29.86 "HgN/A
6:00 AM81 °FClear.3 mph70%29.86 "Hg10 mi
5:00 AM82 °FClear.3 mph70%29.83 "Hg10 mi
4:00 AM82 °FClear.5 mph66%29.83 "Hg10 mi
3:00 AM84 °FClear.2 mph66%29.80 "Hg10 mi
2:00 AM84 °FClear.2 mph66%29.83 "Hg10 mi
1:00 AM86 °FClear.No wind62%29.83 "Hg10 mi
12:00 AM86 °FClear.No wind66%29.83 "Hg10 mi
11:00 PM
Sep 29
88 °FClear.No wind62%29.83 "Hg10 mi
10:00 PM88 °FClear.No wind62%29.83 "Hg10 mi
Weather by CustomWeather, © 2014

See weather overviewHow to use our weather pages